Content
SEND FEEDBACK

Daily
Averages
Monthly
Summary
France

ROUEN, FRANCE


Home > Europe > France
Elevation: 515 feet     Latitude: 49 23N     Longitude: 001 11E

WEATHER
 
SELECT A DAY
Number of Records: 181,010;   Date Range: 7/1/96 - 10/30/14
 
SHARE

PRINT THIS DATA

[ ← Previous Day ]
WEATHER ALMANAC - FEBRUARY 22, 2013
[ Next Day → ]
[ °C ]   °F
Weather ElementAverageHighLow
Temperature28 °F30.2 °F (11:00 am)24.8 °F (7:00 am)
Dewpoint19.4 °F23 °F (1:30 am)15.8 °F (8:00 pm)
Humidity69.8 %86 % (1:30 am)48 % (7:00 pm)
Barometer29.99 in30.07 in (1:00 am)29.95 in (2:30 pm)
Wind Speed14.6 mph19.6 mph (3:00 pm)
Weather ElementAverage
Visibility5.9 mi
Wind DirectionNE (49.4 °)

Weather ElementTotal
Precipitation---
Heating Degree Days37.5 (Base 65)
Averaged from 51 records on February 22, 2013
WEATHER CONDITIONS BREAKOUT
WIND DIRECTION BREAKOUT
WEATHER BY HOUR - FEBRUARY 22, 2013
[ °C ]   °F
Local TimeTemperatureDewpointHumidityBarometerVisibilityWind DirectionWind SpeedGust SpeedPrecipitationEventsConditions
12:30 AM28.4 °F21.2 °F74 %30.04 in6.2 miENE (60°)15.0 mphPartly Cloudy
1:00 AM27.0 °F21.0 °F71 %30.07 in6.0 miENE (60°)13.8 mphClear
1:00 AM26.6 °F21.2 °F80 %30.04 in6.2 miENE (60°)13.8 mphPartly Cloudy
1:30 AM26.6 °F23.0 °F86 %30.04 in5.0 miENE (60°)13.8 mphPartly Cloudy
2:00 AM26.6 °F21.2 °F80 %30.01 in5.0 miNE (50°)11.5 mphPartly Cloudy
2:30 AM26.6 °F21.2 °F80 %30.01 in5.0 miNE (50°)10.4 mphMostly Cloudy
3:00 AM26.6 °F21.2 °F80 %30.01 in5.0 miNE (50°)10.4 mphMostly Cloudy
3:30 AM26.6 °F21.2 °F80 %30.01 in5.0 miNE (50°)11.5 mphScattered Clouds
4:00 AM26.6 °F21.2 °F80 %29.98 in5.0 miNE (50°)10.4 mphPartly Cloudy
4:30 AM26.6 °F21.2 °F80 %29.98 in5.0 miNE (40°)11.5 mph
5:00 AM26.6 °F21.2 °F80 %29.98 in4.3 miNE (40°)13.8 mphScattered Clouds
5:30 AM26.6 °F21.2 °F80 %29.98 in4.3 miNE (50°)15.0 mphMostly Cloudy
6:00 AM26.6 °F21.2 °F80 %29.98 in4.3 miNE (50°)16.1 mphOvercast
6:30 AM26.6 °F21.2 °F80 %29.98 in4.3 miNE (50°)12.7 mphMostly Cloudy
7:00 AM26.0 °F21.0 °F73 %30.03 in4.0 miNE (50°)12.7 mphMostly Cloudy
7:00 AM24.8 °F21.2 °F86 %29.98 in4.3 miNE (50°)12.7 mphMostly Cloudy
7:30 AM24.8 °F21.2 °F86 %29.98 in5.0 miNE (50°)15.0 mphOvercast
8:00 AM26.6 °F21.2 °F80 %30.01 in5.0 miNE (50°)11.5 mphMostly Cloudy
8:30 AM26.6 °F21.2 °F80 %30.01 in5.6 miNE (50°)16.1 mphMostly Cloudy
9:00 AM26.6 °F21.2 °F80 %30.01 in6.2 miNE (50°)13.8 mphOvercast
9:30 AM26.6 °F21.2 °F80 %30.01 in6.2 miENE (60°)12.7 mphOvercast
10:00 AM26.6 °F21.2 °F80 %30.01 in6.2 miNE (50°)15.0 mphMostly Cloudy
10:30 AM28.4 °F21.2 °F74 %29.98 in6.2 miNE (50°)16.1 mphMostly Cloudy
11:00 AM30.2 °F21.2 °F69 %29.98 in6.2 miNE (50°)15.0 mphMostly Cloudy
11:30 AM30.2 °F19.4 °F64 %29.98 in6.2 miNE (50°)18.4 mphMostly Cloudy
12:00 PM30.2 °F19.4 °F64 %29.98 in6.2 miNE (50°)15.0 mphMostly Cloudy
12:30 PM28.4 °F17.6 °F64 %29.98 in6.2 miENE (60°)18.4 mphMostly Cloudy
1:00 PM29.0 °F18.0 °F51 %30.03 in9.0 miENE (60°)16.1 mphMostly Cloudy
1:00 PM30.2 °F17.6 °F60 %29.98 in6.2 miENE (60°)16.1 mphMostly Cloudy
1:30 PM28.4 °F17.6 °F64 %29.98 in6.2 miNE (50°)15.0 mphOvercast
2:00 PM30.2 °F17.6 °F60 %29.98 in6.2 miNE (50°)15.0 mphOvercast
2:30 PM30.2 °F17.6 °F60 %29.95 in6.2 miNE (50°)15.0 mphOvercast
3:00 PM30.2 °F17.6 °F60 %29.95 in6.2 miNE (50°)19.6 mphOvercast
3:30 PM30.2 °F17.6 °F60 %29.95 in6.2 miNE (50°)15.0 mphOvercast
4:00 PM28.4 °F17.6 °F64 %29.95 in6.2 miNE (50°)15.0 mphOvercast
4:30 PM28.4 °F17.6 °F64 %29.95 in6.2 miNE (50°)17.3 mphOvercast
5:00 PM28.4 °F17.6 °F64 %29.95 in6.2 miNE (50°)16.1 mphOvercast
5:30 PM28.4 °F17.6 °F64 %29.95 in6.2 miNE (50°)15.0 mphOvercast
6:00 PM30.2 °F17.6 °F60 %29.95 in6.2 miNE (40°)12.7 mphMostly Cloudy
6:30 PM30.2 °F17.6 °F60 %29.95 in6.2 miNE (40°)18.4 mphOvercast
7:00 PM29.0 °F17.0 °F48 %30.01 in9.0 miNE (40°)16.1 mphClear
7:00 PM30.2 °F17.6 °F60 %29.98 in6.2 miNE (40°)16.1 mphOvercast
7:30 PM28.4 °F17.6 °F64 %29.98 in6.2 miNE (40°)15.0 mphOvercast
8:00 PM28.4 °F15.8 °F59 %29.98 in6.2 miNE (40°)19.6 mphOvercast
8:30 PM28.4 °F17.6 °F64 %29.98 in6.2 miNE (50°)16.1 mphOvercast
9:00 PM28.4 °F17.6 °F64 %29.98 in6.2 miNE (40°)13.8 mphOvercast
9:30 PM28.4 °F17.6 °F64 %29.98 in6.2 miNE (40°)13.8 mphOvercast
10:00 PM28.4 °F17.6 °F64 %29.98 in6.2 miNE (50°)11.5 mphOvercast
10:30 PM28.4 °F17.6 °F64 %29.98 in6.2 miNE (40°)13.8 mphOvercast
11:00 PM28.4 °F17.6 °F64 %29.98 in6.2 miNE (50°)11.5 mphOvercast
11:30 PM28.4 °F17.6 °F64 %29.95 in6.2 miNE (50°)17.3 mphOvercast
Hourly data recorded from LFOP, located miles away from Rouen, France







STORIES FROM OUR PARTNERS